Time,TemperatureF,DewpointF,PressureIn,WindDirection,WindDirectionDegrees,WindSpeedMPH,WindSpeedGustMPH,Humidity,HourlyPrecipIn,Conditions,Clouds,dailyrainin,SolarRadiationWatts/m^2,SoftwareType,DateUTC
2013-09-11 00:05:00,70.2,-99.9,30.10,WSW,240,6.0,7.0,0,0.00,,,0.00,0,Wunderground v.1.15,2013-09-11 04:05:00,
2013-09-11 00:10:00,70.2,-99.9,30.10,WSW,239,7.0,17.0,0,0.00,,,0.00,0,Wunderground v.1.15,2013-09-11 04:10:00,
2013-09-11 00:15:00,70.2,-99.9,30.10,WSW,255,8.0,17.0,0,0.00,,,0.00,0,Wunderground v.1.15,2013-09-11 04:15:00,
2013-09-11 00:20:00,70.3,-99.9,30.10,SW,227,9.0,15.0,0,0.00,,,0.00,0,Wunderground v.1.15,2013-09-11 04:20:00,
2013-09-11 00:25:00,70.3,-99.9,30.10,SW,223,8.0,15.0,0,0.00,,,0.00,0,Wunderground v.1.15,2013-09-11 04:25:00,
2013-09-11 00:30:00,70.3,-99.9,30.10,WSW,246,8.0,8.0,0,0.00,,,0.00,0,Wunderground v.1.15,2013-09-11 04:30:00,
2013-09-11 00:40:00,70.4,-99.9,30.09,WSW,249,8.0,8.0,0,0.00,,,0.00,0,Wunderground v.1.15,2013-09-11 04:40:00,
2013-09-11 00:50:00,70.6,-99.9,30.10,SW,217,9.0,9.0,0,0.00,,,0.00,0,Wunderground v.1.15,2013-09-11 04:50:00,
2013-09-11 01:00:00,70.7,-99.9,30.10,WSW,251,9.0,12.0,0,0.00,,,0.00,0,Wunderground v.1.15,2013-09-11 05:00:00,
2013-09-11 01:05:00,70.9,-99.9,30.10,SSW,213,10.0,12.0,0,0.00,,,0.00,0,Wunderground v.1.15,2013-09-11 05:05:00,
2013-09-11 01:10:00,70.9,-99.9,30.09,WSW,246,9.0,9.0,0,0.00,,,0.00,0,Wunderground v.1.15,2013-09-11 05:10:00,
2013-09-11 01:20:00,70.9,-99.9,30.09,WSW,252,7.0,11.0,0,0.00,,,0.00,0,Wunderground v.1.15,2013-09-11 05:20:00,
2013-09-11 01:25:00,70.9,-99.9,30.09,WSW,238,7.0,11.0,0,0.00,,,0.00,0,Wunderground v.1.15,2013-09-11 05:25:00,
2013-09-11 01:30:00,70.9,-99.9,30.09,WSW,257,8.0,8.0,0,0.00,,,0.00,0,Wunderground v.1.15,2013-09-11 05:30:00,
2013-09-11 01:40:00,70.8,-99.9,30.09,SW,223,7.0,7.0,0,0.00,,,0.00,0,Wunderground v.1.15,2013-09-11 05:40:00,
2013-09-11 01:45:00,70.8,-99.9,30.09,WSW,242,7.0,9.0,0,0.00,,,0.00,0,Wunderground v.1.15,2013-09-11 05:45:00,
2013-09-11 01:55:00,70.8,-99.9,30.09,West,261,6.0,7.0,0,0.00,,,0.00,0,Wunderground v.1.15,2013-09-11 05:55:00,
2013-09-11 02:05:00,70.8,-99.9,30.08,WSW,248,6.0,8.0,0,0.00,,,0.00,0,Wunderground v.1.15,2013-09-11 06:05:00,
2013-09-11 02:15:00,70.7,-99.9,30.08,SW,226,5.0,6.0,0,0.00,,,0.00,0,Wunderground v.1.15,2013-09-11 06:15:00,
2013-09-11 02:25:00,70.7,-99.9,30.08,SW,216,6.0,11.0,0,0.00,,,0.00,0,Wunderground v.1.15,2013-09-11 06:25:00,
2013-09-11 02:30:00,70.7,-99.9,30.08,WSW,242,6.0,12.0,0,0.00,,,0.00,0,Wunderground v.1.15,2013-09-11 06:30:00,
2013-09-11 02:40:00,70.7,-99.9,30.07,SW,225,6.0,6.0,0,0.00,,,0.00,0,Wunderground v.1.15,2013-09-11 06:40:00,
2013-09-11 02:50:00,70.7,-99.9,30.07,SW,224,6.0,7.0,0,0.00,,,0.00,0,Wunderground v.1.15,2013-09-11 06:50:00,
2013-09-11 03:00:00,70.6,-99.9,30.07,SW,235,6.0,6.0,0,0.00,,,0.00,0,Wunderground v.1.15,2013-09-11 07:00:00,
2013-09-11 03:10:00,70.4,-99.9,30.07,SW,219,5.0,5.0,0,0.00,,,0.00,0,Wunderground v.1.15,2013-09-11 07:10:00,
2013-09-11 03:20:00,70.3,-99.9,30.07,SW,236,5.0,5.0,0,0.00,,,0.00,0,Wunderground v.1.15,2013-09-11 07:20:00,
2013-09-11 03:30:00,70.1,-99.9,30.07,WSW,248,6.0,11.0,0,0.00,,,0.00,0,Wunderground v.1.15,2013-09-11 07:30:00,
2013-09-11 03:40:00,70.1,-99.9,30.07,SW,228,6.0,6.0,0,0.00,,,0.00,0,Wunderground v.1.15,2013-09-11 07:40:00,
2013-09-11 03:50:00,70.1,-99.9,30.06,SSW,211,6.0,6.0,0,0.00,,,0.00,0,Wunderground v.1.15,2013-09-11 07:50:00,
2013-09-11 04:00:00,70.0,-99.9,30.06,SW,217,6.0,7.0,0,0.00,,,0.00,0,Wunderground v.1.15,2013-09-11 08:00:00,
2013-09-11 04:05:00,70.0,-99.9,30.06,SW,219,6.0,7.0,0,0.00,,,0.00,0,Wunderground v.1.15,2013-09-11 08:05:00,
2013-09-11 04:15:00,69.9,-99.9,30.07,SW,230,7.0,12.0,0,0.00,,,0.00,0,Wunderground v.1.15,2013-09-11 08:15:00,
2013-09-11 04:25:00,69.8,-99.9,30.06,West,261,7.0,11.0,0,0.00,,,0.00,0,Wunderground v.1.15,2013-09-11 08:25:00,
2013-09-11 04:30:00,69.7,-99.9,30.06,SW,225,6.0,6.0,0,0.00,,,0.00,0,Wunderground v.1.15,2013-09-11 08:30:00,
2013-09-11 04:40:00,69.5,-99.9,30.06,SSW,200,6.0,7.0,0,0.00,,,0.00,0,Wunderground v.1.15,2013-09-11 08:40:00,
2013-09-11 04:50:00,69.6,-99.9,30.06,SW,229,7.0,7.0,0,0.00,,,0.00,0,Wunderground v.1.15,2013-09-11 08:50:00,
2013-09-11 04:55:00,69.5,-99.9,30.06,SW,219,6.0,7.0,0,0.00,,,0.00,0,Wunderground v.1.15,2013-09-11 08:55:00,
2013-09-11 05:05:00,69.7,-99.9,30.07,SW,221,5.0,6.0,0,0.00,,,0.00,0,Wunderground v.1.15,2013-09-11 09:05:00,
2013-09-11 05:10:00,69.7,-99.9,30.07,SW,223,5.0,5.0,0,0.00,,,0.00,0,Wunderground v.1.15,2013-09-11 09:10:00,
2013-09-11 05:20:00,69.8,-99.9,30.07,West,265,5.0,6.0,0,0.00,,,0.00,0,Wunderground v.1.15,2013-09-11 09:20:00,
2013-09-11 05:30:00,69.9,-99.9,30.08,SSW,202,4.0,4.0,0,0.00,,,0.00,0,Wunderground v.1.15,2013-09-11 09:30:00,
2013-09-11 05:40:00,70.1,-99.9,30.08,SSW,203,4.0,6.0,0,0.00,,,0.00,0,Wunderground v.1.15,2013-09-11 09:40:00,
2013-09-11 05:50:00,70.0,-99.9,30.08,SW,230,5.0,5.0,0,0.00,,,0.00,0,Wunderground v.1.15,2013-09-11 09:50:00,
2013-09-11 06:00:00,70.0,-99.9,30.08,SW,223,5.0,6.0,0,0.00,,,0.00,0,Wunderground v.1.15,2013-09-11 10:00:00,
2013-09-11 06:10:00,69.8,-99.9,30.09,SW,235,6.0,8.0,0,0.00,,,0.00,0,Wunderground v.1.15,2013-09-11 10:10:00,
2013-09-11 06:20:00,69.6,-99.9,30.09,SSW,205,6.0,8.0,0,0.00,,,0.00,0,Wunderground v.1.15,2013-09-11 10:20:00,
2013-09-11 06:30:00,69.5,-99.9,30.09,SSW,196,5.0,5.0,0,0.00,,,0.00,5,Wunderground v.1.15,2013-09-11 10:30:00,
2013-09-11 06:40:00,69.5,-99.9,30.09,SW,232,6.0,6.0,0,0.00,,,0.00,12,Wunderground v.1.15,2013-09-11 10:40:00,
2013-09-11 06:50:00,69.5,-99.9,30.10,SW,230,5.0,5.0,0,0.00,,,0.00,19,Wunderground v.1.15,2013-09-11 10:50:00,
2013-09-11 07:00:00,69.5,-99.9,30.09,SW,225,6.0,6.0,0,0.00,,,0.00,33,Wunderground v.1.15,2013-09-11 11:00:00,
2013-09-11 07:05:00,69.6,-99.9,30.10,SSW,211,6.0,6.0,0,0.00,,,0.00,40,Wunderground v.1.15,2013-09-11 11:05:00,
2013-09-11 07:10:00,69.7,-99.9,30.10,SW,232,6.0,6.0,0,0.00,,,0.00,49,Wunderground v.1.15,2013-09-11 11:10:00,
2013-09-11 07:20:00,69.9,-99.9,30.10,SSW,206,7.0,10.0,0,0.00,,,0.00,69,Wunderground v.1.15,2013-09-11 11:20:00,
2013-09-11 07:30:00,70.1,-99.9,30.10,SSW,207,8.0,8.0,0,0.00,,,0.00,98,Wunderground v.1.15,2013-09-11 11:30:00,
2013-09-11 07:40:00,70.3,-99.9,30.10,SW,221,8.0,13.0,0,0.00,,,0.00,121,Wunderground v.1.15,2013-09-11 11:40:00,
2013-09-11 07:50:00,70.4,-99.9,30.10,WSW,245,8.0,9.0,0,0.00,,,0.00,158,Wunderground v.1.15,2013-09-11 11:50:00,
2013-09-11 08:00:00,70.6,-99.9,30.10,SW,229,9.0,11.0,0,0.00,,,0.00,162,Wunderground v.1.15,2013-09-11 12:00:00,
2013-09-11 08:10:00,70.8,-99.9,30.10,West,271,6.0,6.0,0,0.00,,,0.00,207,Wunderground v.1.15,2013-09-11 12:10:00,
2013-09-11 08:20:00,71.1,-99.9,30.10,SW,214,6.0,6.0,0,0.00,,,0.00,251,Wunderground v.1.15,2013-09-11 12:20:00,
2013-09-11 08:25:00,71.4,-99.9,30.10,WSW,243,7.0,7.0,0,0.00,,,0.00,272,Wunderground v.1.15,2013-09-11 12:25:00,
2013-09-11 08:35:00,72.1,-99.9,30.10,SW,228,7.0,9.0,0,0.00,,,0.00,295,Wunderground v.1.15,2013-09-11 12:35:00,
2013-09-11 08:45:00,73.2,-99.9,30.09,WSW,249,7.0,7.0,0,0.00,,,0.00,330,Wunderground v.1.15,2013-09-11 12:45:00,
2013-09-11 08:55:00,74.6,-99.9,30.09,SW,232,4.0,7.0,0,0.00,,,0.00,367,Wunderground v.1.15,2013-09-11 12:55:00,
2013-09-11 09:05:00,75.5,-99.9,30.09,SW,231,5.0,7.0,0,0.00,,,0.00,388,Wunderground v.1.15,2013-09-11 13:05:00,
2013-09-11 09:15:00,76.1,7.5,30.09,South,190,2.0,4.0,7,0.00,,,0.00,422,Wunderground v.1.15,2013-09-11 13:15:00,
2013-09-11 09:20:00,75.8,21.4,30.10,SSW,192,5.0,7.0,13,0.00,,,0.00,436,Wunderground v.1.15,2013-09-11 13:20:00,
2013-09-11 09:30:00,75.3,30.2,30.10,WSW,247,6.0,11.0,19,0.00,,,0.00,466,Wunderground v.1.15,2013-09-11 13:30:00,
2013-09-11 09:35:00,75.1,27.3,30.09,WSW,256,6.0,11.0,17,0.00,,,0.00,480,Wunderground v.1.15,2013-09-11 13:35:00,
2013-09-11 09:40:00,75.6,24.7,30.10,SW,226,5.0,12.0,15,0.00,,,0.00,497,Wunderground v.1.15,2013-09-11 13:40:00,
2013-09-11 09:50:00,75.2,34.8,30.10,SW,232,6.0,7.0,23,0.00,,,0.00,515,Wunderground v.1.15,2013-09-11 13:50:00,
2013-09-11 10:00:00,75.4,30.2,30.09,SSW,209,6.0,10.0,19,0.00,,,0.00,540,Wunderground v.1.15,2013-09-11 14:00:00,
2013-09-11 10:10:00,75.3,30.2,30.10,SSW,200,7.0,11.0,19,0.00,,,0.00,559,Wunderground v.1.15,2013-09-11 14:10:00,
2013-09-11 10:20:00,75.0,34.7,30.09,WSW,237,7.0,7.0,23,0.00,,,0.00,585,Wunderground v.1.15,2013-09-11 14:20:00,
2013-09-11 10:30:00,75.0,31.2,30.10,SW,232,7.0,8.0,20,0.00,,,0.00,606,Wunderground v.1.15,2013-09-11 14:30:00,
2013-09-11 10:40:00,75.0,27.2,30.09,SW,228,7.0,7.0,17,0.00,,,0.00,626,Wunderground v.1.15,2013-09-11 14:40:00,
2013-09-11 10:50:00,75.3,28.8,30.09,WSW,239,9.0,9.0,18,0.00,,,0.00,645,Wunderground v.1.15,2013-09-11 14:50:00,
2013-09-11 10:55:00,75.1,31.3,30.09,WSW,255,9.0,9.0,20,0.00,,,0.00,652,Wunderground v.1.15,2013-09-11 14:55:00,
2013-09-11 11:00:00,75.3,31.4,30.09,SSW,205,9.0,11.0,20,0.00,,,0.00,664,Wunderground v.1.15,2013-09-11 15:00:00,
2013-09-11 11:10:00,75.2,28.8,30.08,WSW,237,10.0,10.0,18,0.00,,,0.00,680,Wunderground v.1.15,2013-09-11 15:10:00,
2013-09-11 11:15:00,75.4,28.9,30.09,SW,224,9.0,10.0,18,0.00,,,0.00,686,Wunderground v.1.15,2013-09-11 15:15:00,
2013-09-11 11:20:00,75.3,33.8,30.08,WSW,240,9.0,10.0,22,0.00,,,0.00,694,Wunderground v.1.15,2013-09-11 15:20:00,
2013-09-11 11:30:00,75.3,32.6,30.08,SW,217,9.0,9.0,21,0.00,,,0.00,705,Wunderground v.1.15,2013-09-11 15:30:00,
2013-09-11 11:40:00,74.9,34.6,30.08,SW,229,10.0,14.0,23,0.00,,,0.00,714,Wunderground v.1.15,2013-09-11 15:40:00,
2013-09-11 11:50:00,75.1,32.5,30.08,SW,231,10.0,13.0,21,0.00,,,0.00,724,Wunderground v.1.15,2013-09-11 15:50:00,
2013-09-11 12:00:00,75.4,30.2,30.08,SW,216,9.0,10.0,19,0.00,,,0.00,729,Wunderground v.1.15,2013-09-11 16:00:00,
2013-09-11 12:05:00,75.7,34.1,30.08,South,175,7.0,10.0,22,0.00,,,0.00,738,Wunderground v.1.15,2013-09-11 16:05:00,
2013-09-11 12:15:00,76.1,43.3,30.08,SW,225,7.0,7.0,31,0.00,,,0.00,740,Wunderground v.1.15,2013-09-11 16:15:00,
2013-09-11 12:20:00,75.6,46.0,30.08,SSW,205,8.0,11.0,35,0.00,,,0.00,744,Wunderground v.1.15,2013-09-11 16:20:00,
2013-09-11 12:30:00,75.2,38.9,30.08,SW,229,11.0,13.0,27,0.00,,,0.00,745,Wunderground v.1.15,2013-09-11 16:30:00,
2013-09-11 12:35:00,75.3,34.9,30.08,SSW,207,12.0,13.0,23,0.00,,,0.00,745,Wunderground v.1.15,2013-09-11 16:35:00,
2013-09-11 12:40:00,75.7,34.1,30.08,SW,216,10.0,15.0,22,0.00,,,0.00,745,Wunderground v.1.15,2013-09-11 16:40:00,
2013-09-11 12:50:00,76.1,42.4,30.08,SW,219,9.0,9.0,30,0.00,,,0.00,745,Wunderground v.1.15,2013-09-11 16:50:00,
2013-09-11 12:55:00,75.8,46.2,30.08,SW,228,9.0,12.0,35,0.00,,,0.00,744,Wunderground v.1.15,2013-09-11 16:55:00,
2013-09-11 13:05:00,75.7,42.1,30.07,SW,234,8.0,10.0,30,0.00,,,0.00,745,Wunderground v.1.15,2013-09-11 17:05:00,
2013-09-11 13:10:00,75.8,39.4,30.07,WSW,242,7.0,8.0,27,0.00,,,0.00,744,Wunderground v.1.15,2013-09-11 17:10:00,
2013-09-11 13:20:00,76.2,39.8,30.07,SSW,205,7.0,14.0,27,0.00,,,0.00,742,Wunderground v.1.15,2013-09-11 17:20:00,
2013-09-11 13:30:00,75.6,41.1,30.07,SW,220,11.0,11.0,29,0.00,,,0.00,737,Wunderground v.1.15,2013-09-11 17:30:00,
2013-09-11 13:35:00,75.3,39.0,30.06,WSW,240,11.0,11.0,27,0.00,,,0.00,733,Wunderground v.1.15,2013-09-11 17:35:00,
2013-09-11 13:45:00,76.1,33.3,30.06,SW,223,9.0,12.0,21,0.00,,,0.00,726,Wunderground v.1.15,2013-09-11 17:45:00,
2013-09-11 13:55:00,76.4,41.8,30.06,WSW,237,9.0,13.0,29,0.00,,,0.00,717,Wunderground v.1.15,2013-09-11 17:55:00,
2013-09-11 14:05:00,76.5,43.6,30.05,SSW,204,10.0,11.0,31,0.00,,,0.00,705,Wunderground v.1.15,2013-09-11 18:05:00,
2013-09-11 14:15:00,76.6,46.1,30.05,SW,223,9.0,10.0,34,0.00,,,0.00,696,Wunderground v.1.15,2013-09-11 18:15:00,
2013-09-11 14:25:00,77.1,52.2,30.05,SW,215,7.0,11.0,42,0.00,,,0.00,680,Wunderground v.1.15,2013-09-11 18:25:00,
2013-09-11 14:30:00,76.5,51.0,30.05,SW,230,8.0,10.0,41,0.00,,,0.00,673,Wunderground v.1.15,2013-09-11 18:30:00,
2013-09-11 14:40:00,76.2,48.0,30.05,SW,224,8.0,13.0,37,0.00,,,0.00,654,Wunderground v.1.15,2013-09-11 18:40:00,
2013-09-11 14:45:00,76.0,45.6,30.05,SW,230,8.0,13.0,34,0.00,,,0.00,645,Wunderground v.1.15,2013-09-11 18:45:00,
2013-09-11 14:55:00,76.0,42.3,30.05,SW,225,9.0,10.0,30,0.00,,,0.00,629,Wunderground v.1.15,2013-09-11 18:55:00,
2013-09-11 15:05:00,75.9,42.2,30.04,SW,230,10.0,10.0,30,0.00,,,0.00,608,Wunderground v.1.15,2013-09-11 19:05:00,
2013-09-11 15:15:00,76.4,40.9,30.04,SSW,207,8.0,9.0,28,0.00,,,0.00,584,Wunderground v.1.15,2013-09-11 19:15:00,
2013-09-11 15:25:00,76.8,45.5,30.04,WSW,250,8.0,14.0,33,0.00,,,0.00,564,Wunderground v.1.15,2013-09-11 19:25:00,
2013-09-11 15:35:00,77.0,46.5,30.04,SW,236,8.0,12.0,34,0.00,,,0.00,541,Wunderground v.1.15,2013-09-11 19:35:00,
2013-09-11 15:45:00,77.2,48.9,30.04,WSW,249,8.0,11.0,37,0.00,,,0.00,519,Wunderground v.1.15,2013-09-11 19:45:00,
2013-09-11 15:55:00,76.8,52.0,30.03,WSW,240,8.0,8.0,42,0.00,,,0.00,494,Wunderground v.1.15,2013-09-11 19:55:00,
2013-09-11 16:05:00,76.7,48.5,30.03,SW,226,7.0,10.0,37,0.00,,,0.00,464,Wunderground v.1.15,2013-09-11 20:05:00,
2013-09-11 16:15:00,76.1,46.5,30.03,WSW,238,8.0,12.0,35,0.00,,,0.00,436,Wunderground v.1.15,2013-09-11 20:15:00,
2013-09-11 16:20:00,76.0,43.2,30.02,SW,219,8.0,8.0,31,0.00,,,0.00,424,Wunderground v.1.15,2013-09-11 20:20:00,
2013-09-11 16:30:00,76.0,41.4,30.02,SW,234,8.0,8.0,29,0.00,,,0.00,397,Wunderground v.1.15,2013-09-11 20:30:00,
2013-09-11 16:40:00,76.0,40.5,30.02,SSW,196,8.0,8.0,28,0.00,,,0.00,369,Wunderground v.1.15,2013-09-11 20:40:00,
2013-09-11 16:50:00,76.1,35.6,30.02,SW,225,7.0,7.0,23,0.00,,,0.00,339,Wunderground v.1.15,2013-09-11 20:50:00,
2013-09-11 17:00:00,76.2,39.8,30.02,SW,224,6.0,11.0,27,0.00,,,0.00,311,Wunderground v.1.15,2013-09-11 21:00:00,
2013-09-11 17:10:00,76.0,38.6,30.01,SW,220,6.0,6.0,26,0.00,,,0.00,281,Wunderground v.1.15,2013-09-11 21:10:00,
2013-09-11 17:15:00,76.0,38.6,30.01,SSW,210,5.0,6.0,26,0.00,,,0.00,269,Wunderground v.1.15,2013-09-11 21:15:00,
2013-09-11 17:25:00,75.8,42.1,30.01,SW,234,6.0,6.0,30,0.00,,,0.00,236,Wunderground v.1.15,2013-09-11 21:25:00,
2013-09-11 17:35:00,75.0,33.6,30.01,WSW,239,7.0,11.0,22,0.00,,,0.00,206,Wunderground v.1.15,2013-09-11 21:35:00,
2013-09-11 17:45:00,75.0,24.2,30.00,SSW,196,6.0,7.0,15,0.00,,,0.00,176,Wunderground v.1.15,2013-09-11 21:45:00,
2013-09-11 17:50:00,75.1,25.8,30.01,South,188,6.0,6.0,16,0.00,,,0.00,155,Wunderground v.1.15,2013-09-11 21:50:00,
2013-09-11 18:00:00,75.2,27.4,30.01,SW,217,5.0,5.0,17,0.00,,,0.00,121,Wunderground v.1.15,2013-09-11 22:00:00,
2013-09-11 18:10:00,74.8,27.0,30.01,WSW,243,5.0,9.0,17,0.00,,,0.00,95,Wunderground v.1.15,2013-09-11 22:10:00,
2013-09-11 18:15:00,74.4,23.7,30.01,SW,221,5.0,9.0,15,0.00,,,0.00,76,Wunderground v.1.15,2013-09-11 22:15:00,
2013-09-11 18:20:00,74.2,14.1,30.01,SW,221,5.0,5.0,10,0.00,,,0.00,47,Wunderground v.1.15,2013-09-11 22:20:00,
2013-09-11 18:30:00,74.2,-1.2,30.01,WSW,250,2.0,2.0,5,0.00,,,0.00,37,Wunderground v.1.15,2013-09-11 22:30:00,
2013-09-11 18:40:00,74.1,-5.9,30.01,WSW,252,4.0,7.0,4,0.00,,,0.00,16,Wunderground v.1.15,2013-09-11 22:40:00,
2013-09-11 18:50:00,73.9,-32.9,30.02,NW,311,5.0,5.0,1,0.00,,,0.00,7,Wunderground v.1.15,2013-09-11 22:50:00,
2013-09-11 19:00:00,73.9,-99.9,30.02,WSW,250,6.0,7.0,0,0.00,,,0.00,0,Wunderground v.1.15,2013-09-11 23:00:00,
2013-09-11 19:10:00,73.8,-99.9,30.03,SW,234,5.0,7.0,0,0.00,,,0.00,0,Wunderground v.1.15,2013-09-11 23:10:00,
2013-09-11 19:20:00,73.8,-99.9,30.03,SW,221,6.0,6.0,0,0.00,,,0.00,0,Wunderground v.1.15,2013-09-11 23:20:00,
2013-09-11 19:30:00,73.7,-99.9,30.04,WSW,245,4.0,5.0,0,0.00,,,0.00,0,Wunderground v.1.15,2013-09-11 23:30:00,
2013-09-11 19:40:00,73.5,-99.9,30.03,SSW,206,5.0,5.0,0,0.00,,,0.00,0,Wunderground v.1.15,2013-09-11 23:40:00,
2013-09-11 19:50:00,73.2,-99.9,30.02,SW,220,5.0,5.0,0,0.00,,,0.00,0,Wunderground v.1.15,2013-09-11 23:50:00,
2013-09-11 19:55:00,73.0,-99.9,30.03,WSW,250,6.0,6.0,0,0.00,,,0.00,0,Wunderground v.1.15,2013-09-11 23:55:00,
2013-09-11 20:05:00,72.8,-99.9,30.03,SW,221,5.0,10.0,0,0.00,,,0.00,0,Wunderground v.1.15,2013-09-12 00:05:00,
2013-09-11 20:15:00,72.7,-99.9,30.03,SW,224,5.0,5.0,0,0.00,,,0.00,0,Wunderground v.1.15,2013-09-12 00:15:00,
2013-09-11 20:25:00,72.5,-99.9,30.03,SSW,207,3.0,5.0,0,0.00,,,0.00,0,Wunderground v.1.15,2013-09-12 00:25:00,
2013-09-11 20:30:00,72.5,-99.9,30.03,WSW,240,4.0,4.0,0,0.00,,,0.00,0,Wunderground v.1.15,2013-09-12 00:30:00,
2013-09-11 20:40:00,72.4,-99.9,30.03,SSW,207,4.0,6.0,0,0.00,,,0.00,0,Wunderground v.1.15,2013-09-12 00:40:00,
2013-09-11 20:50:00,72.4,-99.9,30.03,WSW,252,4.0,5.0,0,0.00,,,0.00,0,Wunderground v.1.15,2013-09-12 00:50:00,
2013-09-11 20:55:00,72.3,-99.9,30.03,SSW,200,3.0,5.0,0,0.00,,,0.00,0,Wunderground v.1.15,2013-09-12 00:55:00,
2013-09-11 21:05:00,72.3,-99.9,30.03,SSW,211,4.0,5.0,0,0.00,,,0.00,0,Wunderground v.1.15,2013-09-12 01:05:00,
2013-09-11 21:10:00,72.4,-99.9,30.03,SSW,203,5.0,6.0,0,0.00,,,0.00,0,Wunderground v.1.15,2013-09-12 01:10:00,
2013-09-11 21:20:00,72.5,-99.9,30.03,SSW,205,5.0,6.0,0,0.00,,,0.00,0,Wunderground v.1.15,2013-09-12 01:20:00,
2013-09-11 21:25:00,72.5,-99.9,30.03,SW,236,5.0,6.0,0,0.00,,,0.00,0,Wunderground v.1.15,2013-09-12 01:25:00,
2013-09-11 21:35:00,72.7,-99.9,30.03,WSW,246,5.0,7.0,0,0.00,,,0.00,0,Wunderground v.1.15,2013-09-12 01:35:00,
2013-09-11 21:45:00,72.8,-99.9,30.02,SSW,210,5.0,7.0,0,0.00,,,0.00,0,Wunderground v.1.15,2013-09-12 01:45:00,
2013-09-11 21:55:00,72.9,-99.9,30.02,SW,214,6.0,6.0,0,0.00,,,0.00,0,Wunderground v.1.15,2013-09-12 01:55:00,
2013-09-11 22:05:00,72.8,-99.9,30.02,SSW,212,5.0,6.0,0,0.00,,,0.00,0,Wunderground v.1.15,2013-09-12 02:05:00,
2013-09-11 22:10:00,72.7,-99.9,30.02,SSW,209,5.0,5.0,0,0.00,,,0.00,0,Wunderground v.1.15,2013-09-12 02:10:00,
2013-09-11 22:20:00,72.6,-99.9,30.02,SW,230,5.0,5.0,0,0.00,,,0.00,0,Wunderground v.1.15,2013-09-12 02:20:00,
2013-09-11 22:25:00,72.5,-99.9,30.02,SW,215,5.0,5.0,0,0.00,,,0.00,0,Wunderground v.1.15,2013-09-12 02:25:00,
2013-09-11 22:35:00,72.3,-99.9,30.02,SSW,196,5.0,6.0,0,0.00,,,0.00,0,Wunderground v.1.15,2013-09-12 02:35:00,
2013-09-11 22:40:00,72.2,-99.9,30.02,SSW,213,5.0,7.0,0,0.00,,,0.00,0,Wunderground v.1.15,2013-09-12 02:40:00,
2013-09-11 22:50:00,72.1,-99.9,30.02,SW,223,5.0,5.0,0,0.00,,,0.00,0,Wunderground v.1.15,2013-09-12 02:50:00,
2013-09-11 23:00:00,72.1,-99.9,30.02,SW,215,5.0,5.0,0,0.00,,,0.00,0,Wunderground v.1.15,2013-09-12 03:00:00,
2013-09-11 23:05:00,72.1,-99.9,30.02,SW,231,5.0,6.0,0,0.00,,,0.00,0,Wunderground v.1.15,2013-09-12 03:05:00,
2013-09-11 23:15:00,72.1,-99.9,30.01,SW,217,5.0,8.0,0,0.00,,,0.00,0,Wunderground v.1.15,2013-09-12 03:15:00,
2013-09-11 23:25:00,71.9,-99.9,30.01,SSW,212,5.0,6.0,0,0.00,,,0.00,0,Wunderground v.1.15,2013-09-12 03:25:00,
2013-09-11 23:35:00,71.7,-99.9,30.00,SW,226,4.0,6.0,0,0.00,,,0.00,0,Wunderground v.1.15,2013-09-12 03:35:00,
2013-09-11 23:45:00,71.5,-99.9,30.00,SSW,206,4.0,5.0,0,0.00,,,0.00,0,Wunderground v.1.15,2013-09-12 03:45:00,
2013-09-11 23:55:00,71.4,-99.9,30.00,SSW,211,5.0,6.0,0,0.00,,,0.00,0,Wunderground v.1.15,2013-09-12 03:55:00,